Regional Weather Roundup
Issued by NWS

Home | Current Version | Previous Version | Text Only | Print | Product List | Glossary On
Versions: 1 2 3 4 5 6 7 8 9 10 11 12 13 14 15 16 17 18 19 20 21 22 23 24 25 26 27 28 29 30 31 32 33 34 35 36 37 38 39 40 41 42 43 44 45 46 47 48 49 50
000
ASUS43 KBIS 271502
RWRND

NORTH DAKOTA REGIONAL WEATHER ROUNDUP
NATIONAL WEATHER SERVICE BISMARCK ND
1000 AM CDT WED JUL 27 2016

NOTE: "FAIR" INDICATES FEW OR NO CLOUDS BELOW 12,000 FEET WITH NO
SIGNIFICANT WEATHER AND/OR OBSTRUCTIONS TO VISIBILITY.


NDZ001>003-009>011-017-271600-
NORTHWEST NORTH DAKOTA

CITY           SKY/WX    TMP DP  RH WIND       PRES   REMARKS
WILLISTON      CLOUDY    68  56  65 N6        30.13S
MINOT          CLOUDY    70  59  68 SE5       30.14R
MINOT AFB      PTSUNNY   67  58  72 VRB5      30.14R
$$

NDZ018>021-031>035-040>046-271600-
SOUTHWEST NORTH DAKOTA

CITY           SKY/WX    TMP DP  RH WIND       PRES   REMARKS
BISMARCK       MOSUNNY   70  62  76 VRB3      30.11S
DICKINSON      PTSUNNY   64  60  87 CALM      30.13R
GARRISON         N/A     69  63  81 E7        30.13R
HETTINGER ARPT CLOUDY    67  60  78 NE6       30.15R
$$

NDZ004>008-012>016-024-026-027-054-271600-
NORTHEAST NORTH DAKOTA

CITY           SKY/WX    TMP DP  RH WIND       PRES   REMARKS
GRAND FORKS    MOSUNNY   69  60  73 N12       30.06R
GRND FRKS AFB  MOSUNNY   70  60  69 N9        30.07S
DEVILS LAKE    CLOUDY    65  57  75 N8        30.13S
$$

NDZ022-023-025-028>030-036>039-047>053-271600-
SOUTHEAST NORTH DAKOTA

CITY           SKY/WX    TMP DP  RH WIND       PRES   REMARKS
FARGO          SUNNY     71  60  68 N15       30.03R
JAMESTOWN      SUNNY     69  60  73 NE10      30.08S
$$





USA.gov is the U.S. government's official web portal to all federal, state and local government web resources and services.